This demonstration page uses our WeatherBlox Daily Observations layout. Learn more.

Left ArrowRight Arrow

41.86663, -103.66717

Hourly Observations for April 17, 2017

Temp ( °F °C ) Dew Point ( °F °C ) Humidity (%) Winds ( mph kmh ) Pressure ( in mb ) Visibility ( mi km ) Precip ( " mm )
12:53 am 00:53 Partly Cloudy 44 6.7 25 -3.9 47 47 ESE 8 13 30.09 1019 10 16.0934 N/A
1:53 am 01:53 Mostly Cloudy 47 8.3 26 -3.3 44 44 ENE 18 30 30.06 1018 10 16.0934 N/A
2:53 am 02:53 Cloudy 48 8.9 25 -3.9 41 41 E 13 20 30.06 1018 10 16.0934 N/A
3:04 am 03:04 Cloudy 48 9 25 -4 40 40 ESE 9 15 30.09 1019 10 16.0934 N/A
3:53 am 03:53 Cloudy 47 8.3 25 -3.9 42 42 E 13 20 30.06 1018 10 16.0934 N/A
4:53 am 04:53 Cloudy 47 8.3 26 -3.3 44 44 ESE 10 17 30.06 1018 10 16.0934 N/A
5:53 am 05:53 Cloudy 47 8.3 27 -2.8 46 46 E 9 15 30.05 1018 10 16.0934 N/A
6:53 am 06:53 Cloudy 47 8.3 28 -2.2 48 48 E 7 11 30.06 1018 10 16.0934 N/A
7:53 am 07:53 Cloudy 47 8.3 32 undefined 56 56 E 12 19 30.07 1018 10 16.0934 N/A
8:53 am 08:53 Cloudy 48 8.9 33 0.6 56 56 SE 12 19 30.05 1018 10 16.0934 N/A
9:53 am 09:53 Cloudy 50 10 37 2.8 61 61 SE 15 24 30.01 1016 10 16.0934 N/A
10:53 am 10:53 Mostly Sunny 57 13.9 42 5.6 58 58 SE 13 20 29.97 1015 10 16.0934 N/A
11:20 am 11:20 Mostly Cloudy 57 14 43 6 59 59 SE 18 30 29.88 1012 10 16.0934 N/A
11:48 am 11:48 Partly Cloudy 63 17 45 7 52 52 SSE 20 31 29.83 1010 10 16.0934 N/A
11:53 am 11:53 Partly Cloudy 61 16.1 45 7.2 56 56 SE 18 30 29.92 1013 10 16.0934 N/A
12:53 pm 12:53 Partly Cloudy 67 19.4 47 8.3 49 49 SE 17 28 29.86 1011 10 16.0934 N/A
1:53 pm 13:53 Sunny 71 21.7 48 8.9 44 44 SE 22 35 29.8 1009 10 16.0934 N/A
2:53 pm 14:53 Sunny 74 23.3 45 7.2 36 36 SSE 22 35 29.75 1008 10 16.0934 N/A
3:53 pm 15:53 Sunny 74 23.3 42 5.6 32 32 S 23 37 29.73 1007 10 16.0934 N/A
4:53 pm 16:53 Sunny 73 22.8 48 8.9 41 41 S 24 39 29.72 1006 10 16.0934 N/A
5:53 pm 17:53 Sunny 70 21.1 49 9.4 47 47 S 14 22 29.72 1007 10 16.0934 N/A
6:53 pm 18:53 Sunny 68 20 49 9.4 51 51 S 17 28 29.71 1006 10 16.0934 N/A
7:53 pm 19:53 Clear 64 17.8 48 8.9 56 56 ESE 7 11 29.75 1007 10 16.0934 N/A
8:53 pm 20:53 Clear 63 17.2 51 10.6 65 65 SE 10 17 29.78 1008 10 16.0934 N/A
9:53 pm 21:53 Partly Cloudy 61 16.1 52 11.1 72 72 SSE 9 15 29.8 1009 10 16.0934 N/A
10:53 pm 22:53 Partly Cloudy 60 15.6 51 10.6 72 72 NE 7 11 29.79 1009 10 16.0934 N/A
11:53 pm 23:53 Clear 54 12.2 40 4.4 59 59 N 22 35 29.83 1010 10 16.0934 N/A

Powered by AerisWeather